Location: Eaton Estates
(41.3089°N, 82.0057°W)
Time: 14:20:43
(UTC+00:00)

USA 308 - Pass Details

Date: 28 October 2021
Orbit: 565 x 570 km, 54.0° (Epoch: 04 December)

Event Time Altitude Azimuth Distance (km) Brightness Sun altitude
Exits shadow 11:20:06 - 302° (WNW) 2,080 5.2 -7.2°
Reaches altitude 10° 11:20:51 10° 309° (NW) 1,879 5.0 -7.1°
Maximum altitude 11:23:37 16° 349° (N) 1,506 4.8 -6.5°
Drops below altitude 10° 11:26:22 10° 30° (NNE) 1,880 5.8 -6.0°
Sets 11:29:22 0° 51° (NE) 2,778 7.0 -5.5°
